Location: Unspecified
(0.0000°N, 0.0000°E)
Time: 12:00:34
(UTC+00:00)

A-11 Canister half - Pass Details

Date: 19 December 2018
Orbit: 1516 x 1683 km, 47.2° (Epoch: 25 March)

Event Time Altitude Azimuth Distance (km) Brightness Sun altitude
Rises 20:29:59 0° 335° (NNW) 4,905 11.6 -34.6°
Reaches altitude 10° 20:33:24 10° 342° (NNW) 3,928 11.0 -35.3°
Enters shadow 20:34:32 14° 345° (NNW) 3,621 10.8 -35.5°
